User: anonymous   Login
Location: Aalen
(48.8330°N, 10.1000°E)
Time: 12:41:23
(UTC+02:00)
Language:

Transit 2A Rocket - Orbit

View from above orbital plane
View from above orbital plane
View from above satellite
View from above satellite

Ground track
Ground track

The orbit data is extracted from the following two-line orbital elements,

1 00047U 60007C   21214.74968867 -.00000012  00000-0  22269-4 0  9998
2 00047  66.6661 135.2146 0227442   0.4072 359.7174 14.42163862193983
Epoch (UTC): 02 August 2021 17:59:33
Eccentricity: 0.0227442
inclination: 66.6661°
perigee height: 589 km
apogee height: 913 km
right ascension of ascending node: 135.2146°
argument of perigee: 0.4072°
revolutions per day: 14.42163862
mean anomaly at epoch: 359.7174°
orbit number at epoch: 19398

The dashed part of the orbit path shows where the satellite is in the earth's shadow,  

DLR